DELTA 1 DEB, 10760

Orbit data source: Space-Track

DELTA 1 DEB, 10760 is space debris in SSO originally from a launch on Thu, 29 Jul 1976 UTC launched from the Air Force Western Test Range (AFWTR). Debris objects in space refer to the collection of defunct objects orbiting the Earth. Examples of debris include non-operational satellites, rocket bodies, and fragments generated from explosions, collisions, or faulty payload assembly.

Loading next visibility...
Identifier
10760, 1976-077BH
Orbit
SSO
Country
Flag of USUS
Related business
Manufacturer
Unknown
Mission
Spacecraft
Bus & Motor
Unknown
Mass
Unknown
Launch date (UTC)
1976-07-29 (50 years ago)
Launch vehicle
Unknown
Launch site
Air Force Western Test Range (AFWTR)
Object type
Payload
Rocket body
Debris
Shape & HBR
Unknown shape, 0.1 m
Radar Cross Section
Medium (>0.1 m² and <1 m²)

Expand to show TLE details & history
Last TLE update: 2 days ago

TLE from 2 days ago
0 DELTA 1 DEB
1 10760U 76077BH  26171.30681645  .00000085  00000-0  58619-3 0  9996
2 10760 101.5045 308.8436 0554424 109.0601 286.8207 12.34669406632785
Epoch: 2026-06-20T07:21Z
TLE epoch observation values (Epoch: 2026-06-20T07:21:48.941Z)
Latitude
29.079°
Longitude
-76.60051°
Altitude
1,428.49 km
Speed
7.196 km/s
True Right ascension
20h 09m 30s
True Declination
28° 56' 45"
Sunlit
Object was in daylight at epoch
Visualization orbit readout
Latitude
Unknown
Longitude
Unknown
Altitude
Unknown
Speed
Unknown
Apparent Right ascension
Unknown
Apparent Declination
Unknown
Sunlit
N/A
Visualization observer readout
Local Sidereal Time
00:54:27
Azimuth
Unknown
Elevation
Unknown
Doppler factor
Unknown
Orbital elements
Apogee altitude
1,965.093 km
Perigee altitude
1,088.553 km
Semi-major axis
7,904.96 km
Eccentricity
0.05544
Inclination
101.5045°
RAAN
308.8436°
Arg. of periapsis
109.0601°
True anomaly
280.62705°
Mean anomaly
286.8207°
Eccentric anomaly
283.73492°
Mean motion
3.08812 °/min
Orbital period
116.58 mins
BSTAR
0.00058619
Loading maneuver chart data...
Computing Atmospheric mass density...
Loading historical data...
Loading historical data...
Loading historical data...
Loading historical data...
Loading historical data...
Loading historical data...
Loading historical data...

Documentation

Showing up to 5 results
|